Regional Weather Roundup
Issued by NWS

Home | Current Version | Previous Version | Graphics & Text | Print | Product List | Glossary On
Versions: 1 2 3 4 5 6 7 8 9 10 11 12 13 14 15 16 17 18 19 20 21 22 23 24 25 26 27 28 29 30 31 32 33 34 35 36 37 38 39 40 41 42 43 44 45 46 47 48 49 50
000
ASUS43 KIND 250209
RWRIN

WEATHER ROUNDUP FOR INDIANA
NATIONAL WEATHER SERVICE INDIANAPOLIS IN
1000 PM EDT THU APR 24 2014

NOTE: "FAIR" INDICATES FEW OR NO CLOUDS BELOW 12,000 FEET WITH NO
SIGNIFICANT WEATHER AND/OR OBSTRUCTIONS TO VISIBILITY.

* - STATION DOES NOT REPORT WEATHER SUCH AS PRECIPITATION OR FOG.

+ - STATION NOT QUALITY CONTROLLED BY THE NATIONAL WEATHER SERVICE.
    USE DATA WITH CAUTION...ESPECIALLY DEWPOINT AND RELATIVE
    HUMIDITY OBSERVATIONS.

INZ001>003-010>013-019-020-250300-
NORTHWEST INDIANA

CITY           SKY/WX    TMP DP  RH WIND       PRES   REMARKS
GARY /AIRPORT/ CLOUDY    61  27  27 SE12      29.74R
LA PORTE +     CLOUDY    56  22  26 SE13      29.76F
MICHIGAN CITY+ CLOUDY    55  21  26 SE9G18    29.75S
MONTICELLO +   CLOUDY    59  32  35 SE7       29.74R
RENSSELAER +   CLOUDY    59  28  31 E17       29.72S
VALPARAISO     CLOUDY    57  24  28 SE14      29.75S

$$

LMZ046-743>745-250300-
SOUTHERN LAKE MICHIGAN

STATION/POSITION TIME  TEMP WIND        PRES
                       AIR  DIR/SP/G
                 (UTC) (F)  (DEG/KT/KT) (MB)
MICHIGAN CITY    0200   58  120/ 17/ 25   N/A

$$

INZ004-005-014>016-021>024-250300-
NORTH CENTRAL INDIANA

CITY           SKY/WX    TMP DP  RH WIND       PRES   REMARKS
GOSHEN         CLOUDY    55  26  32 SE18G26   29.79F
LOGANSPORT +   CLOUDY    55  28  35 E13       29.77S
PERU/GRISSOM   CLOUDY    57  29  34 E14       29.76F
ROCHESTER +    CLOUDY    59  25  27 SE16G22   29.78R
SOUTH BEND     CLOUDY    56  25  30 SE15G25   29.79S
WARSAW +       CLOUDY    54  27  35 SE15G21   29.79F

$$

INZ006>009-017-018-025>027-250300-
NORTHEAST INDIANA

CITY           SKY/WX    TMP DP  RH WIND       PRES   REMARKS
ANGOLA *+      CLEAR     46  28  49 SE14      29.84F
AUBURN +       CLOUDY    48  28  46 E10       29.85S
FORT WAYNE     CLOUDY    54  26  34 E16       29.83F

$$

INZ028-029-035-036-043>045-051>053-250300-
WEST CENTRAL INDIANA

CITY           SKY/WX    TMP DP  RH WIND       PRES   REMARKS
GREENCASTLE +  MOCLDY    63  39  42 SE10      29.72F
LAFAYETTE      LGT RAIN  57  42  57 E12       29.71F
TERRE HAUTE    CLOUDY    66  39  37 SE7       29.69F

$$

INZ030>032-037>040-046>048-054>057-064-065-250300-
CENTRAL INDIANA

CITY           SKY/WX    TMP DP  RH WIND       PRES   REMARKS
CP ATTERBURY + CLOUDY    61  41  48 SE7       29.77F
COLUMBUS       CLEAR     61  39  44 SE9       29.77
GREENWOOD *+   CLOUDY    61  39  44 SE9       29.77F
INDIANAPOLIS   CLOUDY    61  37  41 SE15      29.74F
-EAGLE CREEK   CLOUDY    61  36  39 SE13      29.75S
KOKOMO *+        N/A    N/A N/A N/A MISG        N/A
MARION +       CLOUDY    57  24  27 SE13      29.79F
MT COMFORT *+  CLOUDY    59  32  36 SE13      29.78F
SHELBYVILLE    CLOUDY    61  37  41 E12       29.77F
ZIONSVILLE +   CLOUDY    61  32  33 SE12      29.76S

$$

INZ033-034-041-042-049-050-058-059-250300-
EAST CENTRAL INDIANA

CITY           SKY/WX    TMP DP  RH WIND       PRES   REMARKS
MUNCIE         CLOUDY    57  27  31 SE12      29.80F

$$

INZ060-061-067>069-081>083-085>088-250300-
SOUTHWEST INDIANA

CITY           SKY/WX    TMP DP  RH WIND       PRES   REMARKS
EVANSVILLE     CLOUDY    70  41  34 SE6       29.68F
HUNTINGBURG *+ CLOUDY    66  39  37 S10       29.71F
WASHINGTON +   CLOUDY    64  43  46 SE5       29.69F

$$

INZ062-063-066-070>080-084-089>092-250300-
SOUTH CENTRAL AND SOUTHEAST INDIANA

CITY           SKY/WX    TMP DP  RH WIND       PRES   REMARKS
BLOOMINGTON    MOCLDY    64  38  38 SE8       29.73F

$$




USA.gov is the U.S. government's official web portal to all federal, state and local government web resources and services.